Year,Month,Day,Hour,Minute,Value (Times are PST for temperature in C)
2016,03,31,00,00,13.60
2016,03,31,00,01,13.60
2016,03,31,00,02,13.60
2016,03,31,00,03,13.70
2016,03,31,00,04,13.80
2016,03,31,00,05,13.80
2016,03,31,00,06,13.90
2016,03,31,00,07,14.00
2016,03,31,00,08,14.00
2016,03,31,00,09,14.10
2016,03,31,00,10,14.10
2016,03,31,00,11,14.20
2016,03,31,00,12,14.20
2016,03,31,00,13,14.20
2016,03,31,00,14,14.20
2016,03,31,00,15,14.00
2016,03,31,00,16,13.90
2016,03,31,00,17,13.70
2016,03,31,00,18,13.60
2016,03,31,00,19,13.40
2016,03,31,00,20,13.20
2016,03,31,00,21,13.10
2016,03,31,00,22,12.90
2016,03,31,00,23,12.80
2016,03,31,00,24,12.70
2016,03,31,00,25,12.60
2016,03,31,00,26,12.60
2016,03,31,00,27,12.50
2016,03,31,00,28,12.50
2016,03,31,00,29,12.40
2016,03,31,00,30,12.40
2016,03,31,00,31,12.40
2016,03,31,00,32,12.40
2016,03,31,00,33,12.40
2016,03,31,00,34,12.50
2016,03,31,00,35,12.60
2016,03,31,00,36,12.70
2016,03,31,00,37,12.80
2016,03,31,00,38,12.80
2016,03,31,00,39,12.90
2016,03,31,00,40,12.90
2016,03,31,00,41,13.00
2016,03,31,00,42,13.00
2016,03,31,00,43,13.00
2016,03,31,00,44,13.00
2016,03,31,00,45,13.00
2016,03,31,00,46,13.00
2016,03,31,00,47,13.00
2016,03,31,00,48,12.90
2016,03,31,00,49,12.90
2016,03,31,00,50,12.80
2016,03,31,00,51,12.70
2016,03,31,00,52,12.70
2016,03,31,00,53,12.80
2016,03,31,00,54,12.80
2016,03,31,00,55,12.80
2016,03,31,00,56,12.90
2016,03,31,00,57,13.00
2016,03,31,00,58,13.10
2016,03,31,00,59,13.20
2016,03,31,01,00,13.20
2016,03,31,01,01,13.20
2016,03,31,01,02,13.20
2016,03,31,01,03,13.10
2016,03,31,01,04,13.00
2016,03,31,01,05,12.90
2016,03,31,01,06,12.80
2016,03,31,01,07,12.80
2016,03,31,01,08,12.70
2016,03,31,01,09,12.60
2016,03,31,01,10,12.50
2016,03,31,01,11,12.40
2016,03,31,01,12,12.30
2016,03,31,01,13,12.20
2016,03,31,01,14,12.20
2016,03,31,01,15,12.10
2016,03,31,01,16,12.00
2016,03,31,01,17,11.90
2016,03,31,01,18,11.90
2016,03,31,01,19,11.90
2016,03,31,01,20,11.90
2016,03,31,01,21,11.90
2016,03,31,01,22,11.90
2016,03,31,01,23,11.80
2016,03,31,01,24,11.80
2016,03,31,01,25,11.80
2016,03,31,01,26,11.80
2016,03,31,01,27,11.80
2016,03,31,01,28,11.80
2016,03,31,01,29,11.80
2016,03,31,01,30,11.80
2016,03,31,01,31,11.80
2016,03,31,01,32,11.80
2016,03,31,01,33,11.70
2016,03,31,01,34,11.70
2016,03,31,01,35,11.70
2016,03,31,01,36,11.70
2016,03,31,01,37,11.70
2016,03,31,01,38,11.70
2016,03,31,01,39,11.60
2016,03,31,01,40,11.60
2016,03,31,01,41,11.60
2016,03,31,01,42,11.60
2016,03,31,01,43,11.60
2016,03,31,01,44,11.70
2016,03,31,01,45,11.70
2016,03,31,01,46,11.80
2016,03,31,01,47,11.80
2016,03,31,01,48,11.80
2016,03,31,01,49,11.80
2016,03,31,01,50,11.90
2016,03,31,01,51,11.90
2016,03,31,01,52,11.90
2016,03,31,01,53,11.90
2016,03,31,01,54,11.90
2016,03,31,01,55,11.90
2016,03,31,01,56,11.90
2016,03,31,01,57,11.90
2016,03,31,01,58,11.90
2016,03,31,01,59,11.90
2016,03,31,02,00,11.90
2016,03,31,02,01,11.90
2016,03,31,02,02,11.90
2016,03,31,02,03,12.00
2016,03,31,02,04,12.00
2016,03,31,02,05,12.10
2016,03,31,02,06,12.10
2016,03,31,02,07,12.10
2016,03,31,02,08,12.10
2016,03,31,02,09,12.10
2016,03,31,02,10,12.10
2016,03,31,02,11,12.10
2016,03,31,02,12,12.00
2016,03,31,02,13,12.00
2016,03,31,02,14,11.90
2016,03,31,02,15,11.90
2016,03,31,02,16,11.80
2016,03,31,02,17,11.80
2016,03,31,02,18,11.80
2016,03,31,02,19,11.80
2016,03,31,02,20,11.80
2016,03,31,02,21,11.80
2016,03,31,02,22,11.80
2016,03,31,02,23,11.70
2016,03,31,02,24,11.70
2016,03,31,02,25,11.70
2016,03,31,02,26,11.70
2016,03,31,02,27,11.70
2016,03,31,02,28,11.70
2016,03,31,02,29,11.70
2016,03,31,02,30,11.80
2016,03,31,02,31,11.80
2016,03,31,02,32,11.90
2016,03,31,02,33,11.90
2016,03,31,02,34,12.00
2016,03,31,02,35,12.10
2016,03,31,02,36,12.10
2016,03,31,02,37,12.20
2016,03,31,02,38,12.20
2016,03,31,02,39,12.20
2016,03,31,02,40,12.30
2016,03,31,02,41,12.30
2016,03,31,02,42,12.30
2016,03,31,02,43,12.30
2016,03,31,02,44,12.30
2016,03,31,02,45,12.30
2016,03,31,02,46,12.40
2016,03,31,02,47,12.40
2016,03,31,02,48,12.40
2016,03,31,02,49,12.40
2016,03,31,02,50,12.50
2016,03,31,02,51,12.50
2016,03,31,02,52,12.60
2016,03,31,02,53,12.60
2016,03,31,02,54,12.60
2016,03,31,02,55,12.70
2016,03,31,02,56,12.70
2016,03,31,02,57,12.70
2016,03,31,02,58,12.70
2016,03,31,02,59,12.70
2016,03,31,03,00,12.80
2016,03,31,03,01,12.70
2016,03,31,03,02,12.70
2016,03,31,03,03,12.70
2016,03,31,03,04,12.60
2016,03,31,03,05,12.60
2016,03,31,03,06,12.60
2016,03,31,03,07,12.60
2016,03,31,03,08,12.50
2016,03,31,03,09,12.50
2016,03,31,03,10,12.50
2016,03,31,03,11,12.40
2016,03,31,03,12,12.40
2016,03,31,03,13,12.40
2016,03,31,03,14,12.40
2016,03,31,03,15,12.40
2016,03,31,03,16,12.50
2016,03,31,03,17,12.50
2016,03,31,03,18,12.50
2016,03,31,03,19,12.50
2016,03,31,03,20,12.50
2016,03,31,03,21,12.50
2016,03,31,03,22,12.50
2016,03,31,03,23,12.40
2016,03,31,03,24,12.40
2016,03,31,03,25,12.40
2016,03,31,03,26,12.30
2016,03,31,03,27,12.30
2016,03,31,03,28,12.30
2016,03,31,03,29,12.30
2016,03,31,03,30,12.30
2016,03,31,03,31,12.20
2016,03,31,03,32,12.20
2016,03,31,03,33,12.20
2016,03,31,03,34,12.20
2016,03,31,03,35,12.20
2016,03,31,03,36,12.20
2016,03,31,03,37,12.20
2016,03,31,03,38,12.20
2016,03,31,03,39,12.20
2016,03,31,03,40,12.10
2016,03,31,03,41,12.10
2016,03,31,03,42,12.10
2016,03,31,03,43,12.10
2016,03,31,03,44,12.10
2016,03,31,03,45,12.10
2016,03,31,03,46,12.10
2016,03,31,03,47,12.00
2016,03,31,03,48,12.00
2016,03,31,03,49,11.90
2016,03,31,03,50,11.90
2016,03,31,03,51,11.80
2016,03,31,03,52,11.80
2016,03,31,03,53,11.70
2016,03,31,03,54,11.70
2016,03,31,03,55,11.60
2016,03,31,03,56,11.60
2016,03,31,03,57,11.60
2016,03,31,03,58,11.60
2016,03,31,03,59,11.60
2016,03,31,04,00,11.60
2016,03,31,04,01,11.60
2016,03,31,04,02,11.60
2016,03,31,04,03,11.60
2016,03,31,04,04,11.60
2016,03,31,04,05,11.60
2016,03,31,04,06,11.60
2016,03,31,04,07,11.60
2016,03,31,04,08,11.60
2016,03,31,04,09,11.60
2016,03,31,04,10,11.60
2016,03,31,04,11,11.60
2016,03,31,04,12,11.60
2016,03,31,04,13,11.50
2016,03,31,04,14,11.30
2016,03,31,04,15,11.20
2016,03,31,04,16,11.10
2016,03,31,04,17,10.90
2016,03,31,04,18,10.80
2016,03,31,04,19,10.70
2016,03,31,04,20,10.60
2016,03,31,04,21,10.60
2016,03,31,04,22,10.50
2016,03,31,04,23,10.40
2016,03,31,04,24,10.30
2016,03,31,04,25,10.20
2016,03,31,04,26,10.20
2016,03,31,04,27,10.20
2016,03,31,04,28,10.20
2016,03,31,04,29,10.20
2016,03,31,04,30,10.20
2016,03,31,04,31,10.20
2016,03,31,04,32,10.20
2016,03,31,04,33,10.20
2016,03,31,04,34,10.20
2016,03,31,04,35,10.20
2016,03,31,04,36,10.10
2016,03,31,04,37,10.10
2016,03,31,04,38,10.10
2016,03,31,04,39,10.10
2016,03,31,04,40,10.10
2016,03,31,04,41,10.20
2016,03,31,04,42,10.20
2016,03,31,04,43,10.30
2016,03,31,04,44,10.30
2016,03,31,04,45,10.30
2016,03,31,04,46,10.30
2016,03,31,04,47,10.30
2016,03,31,04,48,10.30
2016,03,31,04,49,10.30
2016,03,31,04,50,10.30
2016,03,31,04,51,10.20
2016,03,31,04,52,10.20
2016,03,31,04,53,10.30
2016,03,31,04,54,10.30
2016,03,31,04,55,10.40
2016,03,31,04,56,10.40
2016,03,31,04,57,10.40
2016,03,31,04,58,10.40
2016,03,31,04,59,10.30
2016,03,31,05,00,10.30
2016,03,31,05,01,10.20
2016,03,31,05,02,10.20
2016,03,31,05,03,10.20
2016,03,31,05,04,10.20
2016,03,31,05,05,10.20
2016,03,31,05,06,10.20
2016,03,31,05,07,10.20
2016,03,31,05,08,10.10
2016,03,31,05,09,10.00
2016,03,31,05,10,9.90
2016,03,31,05,11,9.80
2016,03,31,05,12,9.80
2016,03,31,05,13,9.80
2016,03,31,05,14,9.80
2016,03,31,05,15,9.80
2016,03,31,05,16,9.80
2016,03,31,05,17,9.70
2016,03,31,05,18,9.70
2016,03,31,05,19,9.60
2016,03,31,05,20,9.60
2016,03,31,05,21,9.60
2016,03,31,05,22,9.60
2016,03,31,05,23,9.60
2016,03,31,05,24,9.60
2016,03,31,05,25,9.70
2016,03,31,05,26,9.80
2016,03,31,05,27,9.80
2016,03,31,05,28,9.80
2016,03,31,05,29,9.80
2016,03,31,05,30,9.80
2016,03,31,05,31,9.80
2016,03,31,05,32,9.80
2016,03,31,05,33,9.80
2016,03,31,05,34,9.90
2016,03,31,05,35,10.00
2016,03,31,05,36,10.10
2016,03,31,05,37,10.30
2016,03,31,05,38,10.30
2016,03,31,05,39,10.30
2016,03,31,05,40,10.40
2016,03,31,05,41,10.40
2016,03,31,05,42,10.40
2016,03,31,05,43,10.40
2016,03,31,05,44,10.40
2016,03,31,05,45,10.40
2016,03,31,05,46,10.40
2016,03,31,05,47,10.40
2016,03,31,05,48,10.40
2016,03,31,05,49,10.40
2016,03,31,05,50,10.40
2016,03,31,05,51,10.40
2016,03,31,05,52,10.50
2016,03,31,05,53,10.50
2016,03,31,05,54,10.50
2016,03,31,05,55,10.60
2016,03,31,05,56,10.50
2016,03,31,05,57,10.50
2016,03,31,05,58,10.40
2016,03,31,05,59,10.40
2016,03,31,06,00,10.30
2016,03,31,06,01,10.30
2016,03,31,06,02,10.20
2016,03,31,06,03,10.20
2016,03,31,06,04,10.20
2016,03,31,06,05,10.20
2016,03,31,06,06,10.20
2016,03,31,06,07,10.30
2016,03,31,06,08,10.30
2016,03,31,06,09,10.40
2016,03,31,06,10,10.40
2016,03,31,06,11,10.50
2016,03,31,06,12,10.50
2016,03,31,06,13,10.50
2016,03,31,06,14,10.60
2016,03,31,06,15,10.60
2016,03,31,06,16,10.60
2016,03,31,06,17,10.60
2016,03,31,06,18,10.50
2016,03,31,06,19,10.50
2016,03,31,06,20,10.40
2016,03,31,06,21,10.30
2016,03,31,06,22,10.20
2016,03,31,06,23,10.10
2016,03,31,06,24,10.00
2016,03,31,06,25,9.90
2016,03,31,06,26,9.90
2016,03,31,06,27,9.80
2016,03,31,06,28,9.80
2016,03,31,06,29,9.80
2016,03,31,06,30,9.80
2016,03,31,06,31,9.80
2016,03,31,06,32,9.80
2016,03,31,06,33,9.80
2016,03,31,06,34,9.80
2016,03,31,06,35,9.70
2016,03,31,06,36,9.70
2016,03,31,06,37,9.60
2016,03,31,06,38,9.60
2016,03,31,06,39,9.50
2016,03,31,06,40,9.50
2016,03,31,06,41,9.50
2016,03,31,06,42,9.50
2016,03,31,06,43,9.50
2016,03,31,06,44,9.40
2016,03,31,06,45,9.40
2016,03,31,06,46,9.30
2016,03,31,06,47,9.30
2016,03,31,06,48,9.20
2016,03,31,06,49,9.30
2016,03,31,06,50,9.30
2016,03,31,06,51,9.30
2016,03,31,06,52,9.40
2016,03,31,06,53,9.40
2016,03,31,06,54,9.40
2016,03,31,06,55,9.40
2016,03,31,06,56,9.40
2016,03,31,06,57,9.40
2016,03,31,06,58,9.40
2016,03,31,06,59,9.40
2016,03,31,07,00,9.40
2016,03,31,07,01,9.40
2016,03,31,07,02,9.40
2016,03,31,07,03,9.40
2016,03,31,07,04,9.50
2016,03,31,07,05,9.50
2016,03,31,07,06,9.60
2016,03,31,07,07,9.60
2016,03,31,07,08,9.60
2016,03,31,07,09,9.60
2016,03,31,07,10,9.60
2016,03,31,07,11,9.70
2016,03,31,07,12,9.70
2016,03,31,07,13,9.80
2016,03,31,07,14,9.90
2016,03,31,07,15,9.90
2016,03,31,07,16,9.90
2016,03,31,07,17,9.90
2016,03,31,07,18,10.00
2016,03,31,07,19,10.10
2016,03,31,07,20,10.20
2016,03,31,07,21,10.30
2016,03,31,07,22,10.40
2016,03,31,07,23,10.60
2016,03,31,07,24,10.70
2016,03,31,07,25,10.70
2016,03,31,07,26,10.60
2016,03,31,07,27,10.60
2016,03,31,07,28,10.50
2016,03,31,07,29,10.50
2016,03,31,07,30,10.50
2016,03,31,07,31,10.50
2016,03,31,07,32,10.60
2016,03,31,07,33,10.60
2016,03,31,07,34,10.60
2016,03,31,07,35,10.60
2016,03,31,07,36,10.70
2016,03,31,07,37,10.70
2016,03,31,07,38,10.70
2016,03,31,07,39,10.70
2016,03,31,07,40,10.70
2016,03,31,07,41,10.70
2016,03,31,07,42,10.70
2016,03,31,07,43,10.80
2016,03,31,07,44,10.80
2016,03,31,07,45,10.80
2016,03,31,07,46,10.80
2016,03,31,07,47,10.80
2016,03,31,07,48,10.80
2016,03,31,07,49,10.80
2016,03,31,07,50,10.80
2016,03,31,07,51,10.70
2016,03,31,07,52,10.70
2016,03,31,07,53,10.70
2016,03,31,07,54,10.70
2016,03,31,07,55,10.70
2016,03,31,07,56,10.70
2016,03,31,07,57,10.70
2016,03,31,07,58,10.70
2016,03,31,07,59,10.70
2016,03,31,08,00,10.70
2016,03,31,08,01,10.70
2016,03,31,08,02,10.80
2016,03,31,08,03,10.80
2016,03,31,08,04,10.80
2016,03,31,08,05,10.80
2016,03,31,08,06,10.80
2016,03,31,08,07,10.80
2016,03,31,08,08,10.80
2016,03,31,08,09,10.80
2016,03,31,08,10,10.90
2016,03,31,08,11,10.90
2016,03,31,08,12,10.90
2016,03,31,08,13,11.00
2016,03,31,08,14,11.00
2016,03,31,08,15,11.10
2016,03,31,08,16,11.20
2016,03,31,08,17,11.20
2016,03,31,08,18,11.30
2016,03,31,08,19,11.40
2016,03,31,08,20,11.40
2016,03,31,08,21,11.50
2016,03,31,08,22,11.60
2016,03,31,08,23,11.70
2016,03,31,08,24,11.80
2016,03,31,08,25,11.90
2016,03,31,08,26,11.90
2016,03,31,08,27,12.00
2016,03,31,08,28,12.10
2016,03,31,08,29,12.20
2016,03,31,08,30,12.20
2016,03,31,08,31,12.30
2016,03,31,08,32,12.40
2016,03,31,08,33,12.40
2016,03,31,08,34,12.50
2016,03,31,08,35,12.50
2016,03,31,08,36,12.60
2016,03,31,08,37,12.60
2016,03,31,08,38,12.70
2016,03,31,08,39,12.70
2016,03,31,08,40,12.80
2016,03,31,08,41,12.80
2016,03,31,08,42,12.80
2016,03,31,08,43,12.80
2016,03,31,08,44,12.80
2016,03,31,08,45,12.80
2016,03,31,08,46,12.80
2016,03,31,08,47,12.80
2016,03,31,08,48,12.80
2016,03,31,08,49,12.90
2016,03,31,08,50,12.90
2016,03,31,08,51,12.90
2016,03,31,08,52,13.00
2016,03,31,08,53,13.10
2016,03,31,08,54,13.10
2016,03,31,08,55,13.10
2016,03,31,08,56,13.10
2016,03,31,08,57,13.10
2016,03,31,08,58,13.10
2016,03,31,08,59,13.10
2016,03,31,09,00,13.20
2016,03,31,09,01,13.30
2016,03,31,09,02,13.30
2016,03,31,09,03,13.40
2016,03,31,09,04,13.40
2016,03,31,09,05,13.50
2016,03,31,09,06,13.60
2016,03,31,09,07,13.70
2016,03,31,09,08,13.80
2016,03,31,09,09,13.90
2016,03,31,09,10,14.00
2016,03,31,09,11,14.10
2016,03,31,09,12,14.30
2016,03,31,09,13,14.30
2016,03,31,09,14,14.40
2016,03,31,09,15,14.60
2016,03,31,09,16,14.70
2016,03,31,09,17,14.80
2016,03,31,09,18,14.90
2016,03,31,09,19,15.00
2016,03,31,09,20,15.00
2016,03,31,09,21,15.00
2016,03,31,09,22,15.00
2016,03,31,09,23,15.00
2016,03,31,09,24,15.00
2016,03,31,09,25,15.00
2016,03,31,09,26,15.00
2016,03,31,09,27,15.00
2016,03,31,09,28,14.90
2016,03,31,09,29,14.80
2016,03,31,09,30,14.70
2016,03,31,09,31,14.80
2016,03,31,09,32,14.90
2016,03,31,09,33,15.00
2016,03,31,09,34,15.00
2016,03,31,09,35,15.00
2016,03,31,09,36,15.00
2016,03,31,09,37,15.00
2016,03,31,09,38,15.00
2016,03,31,09,39,15.00
2016,03,31,09,40,15.00
2016,03,31,09,41,15.20
2016,03,31,09,42,15.40
2016,03,31,09,43,15.50
2016,03,31,09,44,15.60
2016,03,31,09,45,15.60
2016,03,31,09,46,15.60
2016,03,31,09,47,15.60
2016,03,31,09,48,15.60
2016,03,31,09,49,15.60
2016,03,31,09,50,15.70
2016,03,31,09,51,15.70
2016,03,31,09,52,15.40
2016,03,31,09,53,15.10
2016,03,31,09,54,14.90
2016,03,31,09,55,14.50
2016,03,31,09,56,14.10
2016,03,31,09,57,13.80
2016,03,31,09,58,13.50
2016,03,31,09,59,13.20
2016,03,31,10,00,12.90
2016,03,31,10,01,12.80
2016,03,31,10,02,12.60
2016,03,31,10,03,12.50
2016,03,31,10,04,12.30
2016,03,31,10,05,12.30
2016,03,31,10,06,12.30
2016,03,31,10,07,12.30
2016,03,31,10,08,12.30
2016,03,31,10,09,12.30
2016,03,31,10,10,12.40
2016,03,31,10,11,12.40
2016,03,31,10,12,12.50
2016,03,31,10,13,12.50
2016,03,31,10,14,12.60
2016,03,31,10,15,12.60
2016,03,31,10,16,12.70
2016,03,31,10,17,12.80
2016,03,31,10,18,12.80
2016,03,31,10,19,12.80
2016,03,31,10,20,12.90
2016,03,31,10,21,12.90
2016,03,31,10,22,12.90
2016,03,31,10,23,13.00
2016,03,31,10,24,13.00
2016,03,31,10,25,13.10
2016,03,31,10,26,13.00
2016,03,31,10,27,13.00
2016,03,31,10,28,13.00
2016,03,31,10,29,12.90
2016,03,31,10,30,12.90
2016,03,31,10,31,12.80
2016,03,31,10,32,12.90
2016,03,31,10,33,12.90
2016,03,31,10,34,12.90
2016,03,31,10,35,12.80
2016,03,31,10,36,12.80
2016,03,31,10,37,12.80
2016,03,31,10,38,12.80
2016,03,31,10,39,12.80
2016,03,31,10,40,12.90
2016,03,31,10,41,12.90
2016,03,31,10,42,12.90
2016,03,31,10,43,12.80
2016,03,31,10,44,12.80
2016,03,31,10,45,12.90
2016,03,31,10,46,12.90
2016,03,31,10,47,12.90
2016,03,31,10,48,12.90
2016,03,31,10,49,13.00
2016,03,31,10,50,13.00
2016,03,31,10,51,13.00
2016,03,31,10,52,13.10
2016,03,31,10,53,13.10
2016,03,31,10,54,13.20
2016,03,31,10,55,13.20
2016,03,31,10,56,13.20
2016,03,31,10,57,13.20
2016,03,31,10,58,13.20
2016,03,31,10,59,13.20
2016,03,31,11,00,13.20
2016,03,31,11,01,13.20
2016,03,31,11,02,13.20
2016,03,31,11,03,13.20
2016,03,31,11,04,13.10
2016,03,31,11,05,13.10
2016,03,31,11,06,13.00
2016,03,31,11,07,12.90
2016,03,31,11,08,12.80
2016,03,31,11,09,12.80
2016,03,31,11,10,12.80
2016,03,31,11,11,12.70
2016,03,31,11,12,12.70
2016,03,31,11,13,12.70
2016,03,31,11,14,12.70
2016,03,31,11,15,12.80
2016,03,31,11,16,12.80
2016,03,31,11,17,12.80
2016,03,31,11,18,12.80
2016,03,31,11,19,12.80
2016,03,31,11,20,12.90
2016,03,31,11,21,12.90
2016,03,31,11,22,13.00
2016,03,31,11,23,13.00
2016,03,31,11,24,13.10
2016,03,31,11,25,13.20
2016,03,31,11,26,13.20
2016,03,31,11,27,13.20
2016,03,31,11,28,13.10
2016,03,31,11,29,13.10
2016,03,31,11,30,13.00
2016,03,31,11,31,12.90
2016,03,31,11,32,12.90
2016,03,31,11,33,12.90
2016,03,31,11,34,12.90
2016,03,31,11,35,12.80
2016,03,31,11,36,12.80
2016,03,31,11,37,12.80
2016,03,31,11,38,12.80
2016,03,31,11,39,12.80
2016,03,31,11,40,12.80
2016,03,31,11,41,12.70
2016,03,31,11,42,12.70
2016,03,31,11,43,12.70
2016,03,31,11,44,12.70
2016,03,31,11,45,12.70
2016,03,31,11,46,12.60
2016,03,31,11,47,12.60
2016,03,31,11,48,12.60
2016,03,31,11,49,12.70
2016,03,31,11,50,12.70
2016,03,31,11,51,12.80
2016,03,31,11,52,12.80
2016,03,31,11,53,12.80
2016,03,31,11,54,12.90
2016,03,31,11,55,12.90
2016,03,31,11,56,13.00
2016,03,31,11,57,13.00
2016,03,31,11,58,13.10
2016,03,31,11,59,13.20
2016,03,31,12,00,13.20
2016,03,31,12,01,13.30
2016,03,31,12,02,13.20
2016,03,31,12,03,13.20
2016,03,31,12,04,13.10
2016,03,31,12,05,13.10
2016,03,31,12,06,13.00
2016,03,31,12,07,13.00
2016,03,31,12,08,12.90
2016,03,31,12,09,13.00
2016,03,31,12,10,13.00
2016,03,31,12,11,13.00
2016,03,31,12,12,13.10
2016,03,31,12,13,13.10
2016,03,31,12,14,13.10
2016,03,31,12,15,13.10
2016,03,31,12,16,13.10
2016,03,31,12,17,13.10
2016,03,31,12,18,13.10
2016,03,31,12,19,13.10
2016,03,31,12,20,13.10
2016,03,31,12,21,13.00
2016,03,31,12,22,12.90
2016,03,31,12,23,12.90
2016,03,31,12,24,12.80
2016,03,31,12,25,12.80
2016,03,31,12,26,12.80
2016,03,31,12,27,12.70
2016,03,31,12,28,12.70
2016,03,31,12,29,12.70
2016,03,31,12,30,12.60
2016,03,31,12,31,12.60
2016,03,31,12,32,12.50
2016,03,31,12,33,12.40
2016,03,31,12,34,12.40
2016,03,31,12,35,12.40
2016,03,31,12,36,12.40
2016,03,31,12,37,12.50
2016,03,31,12,38,12.50
2016,03,31,12,39,12.60
2016,03,31,12,40,12.60
2016,03,31,12,41,12.70
2016,03,31,12,42,12.70
2016,03,31,12,43,12.70
2016,03,31,12,44,12.70
2016,03,31,12,45,12.80
2016,03,31,12,46,12.80
2016,03,31,12,47,12.90
2016,03,31,12,48,12.90
2016,03,31,12,49,13.00
2016,03,31,12,50,13.00
2016,03,31,12,51,13.10
2016,03,31,12,52,13.20
2016,03,31,12,53,13.30
2016,03,31,12,54,13.40
2016,03,31,12,55,13.40
2016,03,31,12,56,13.50
2016,03,31,12,57,13.50
2016,03,31,12,58,13.50
2016,03,31,12,59,13.50
2016,03,31,13,00,13.50
2016,03,31,13,01,13.60
2016,03,31,13,02,13.60
2016,03,31,13,03,13.60
2016,03,31,13,04,13.60
2016,03,31,13,05,13.60
2016,03,31,13,06,13.60
2016,03,31,13,07,13.70
2016,03,31,13,08,13.70
2016,03,31,13,09,13.70
2016,03,31,13,10,13.80
2016,03,31,13,11,13.80
2016,03,31,13,12,13.90
2016,03,31,13,13,13.90
2016,03,31,13,14,13.90
2016,03,31,13,15,13.90
2016,03,31,13,16,14.00
2016,03,31,13,17,14.10
2016,03,31,13,18,14.10
2016,03,31,13,19,14.10
2016,03,31,13,20,14.00
2016,03,31,13,21,14.00
2016,03,31,13,22,14.00
2016,03,31,13,23,14.00
2016,03,31,13,24,14.00
2016,03,31,13,25,13.90
2016,03,31,13,26,14.00
2016,03,31,13,27,14.00
2016,03,31,13,28,14.10
2016,03,31,13,29,14.00
2016,03,31,13,30,14.00
2016,03,31,13,31,14.00
2016,03,31,13,32,14.00
2016,03,31,13,33,14.00
2016,03,31,13,34,14.00
2016,03,31,13,35,14.00
2016,03,31,13,36,13.90
2016,03,31,13,37,13.90
2016,03,31,13,38,13.90
2016,03,31,13,39,13.80
2016,03,31,13,40,13.80
2016,03,31,13,41,13.80
2016,03,31,13,42,13.90
2016,03,31,13,43,13.90
2016,03,31,13,44,13.90
2016,03,31,13,45,14.00
2016,03,31,13,46,14.00
2016,03,31,13,47,13.90
2016,03,31,13,48,14.00
2016,03,31,13,49,14.00
2016,03,31,13,50,14.00
2016,03,31,13,51,14.10
2016,03,31,13,52,14.00
2016,03,31,13,53,14.00
2016,03,31,13,54,13.90
2016,03,31,13,55,13.90
2016,03,31,13,56,13.80
2016,03,31,13,57,13.80
2016,03,31,13,58,13.80
2016,03,31,13,59,13.80
2016,03,31,14,00,13.90
2016,03,31,14,01,13.90
2016,03,31,14,02,14.00
2016,03,31,14,03,14.10
2016,03,31,14,04,14.10
2016,03,31,14,05,14.20
2016,03,31,14,06,14.10
2016,03,31,14,07,14.10
2016,03,31,14,08,14.00
2016,03,31,14,09,13.90
2016,03,31,14,10,13.90
2016,03,31,14,11,13.90
2016,03,31,14,12,13.90
2016,03,31,14,13,13.90
2016,03,31,14,14,13.90
2016,03,31,14,15,13.90
2016,03,31,14,16,14.00
2016,03,31,14,17,14.00
2016,03,31,14,18,14.00
2016,03,31,14,19,14.10
2016,03,31,14,20,14.10
2016,03,31,14,21,14.10
2016,03,31,14,22,14.20
2016,03,31,14,23,14.20
2016,03,31,14,24,14.30
2016,03,31,14,25,14.40
2016,03,31,14,26,14.40
2016,03,31,14,27,14.40
2016,03,31,14,28,14.40
2016,03,31,14,29,14.50
2016,03,31,14,30,14.50
2016,03,31,14,31,14.40
2016,03,31,14,32,14.40
2016,03,31,14,33,14.40
2016,03,31,14,34,14.40
2016,03,31,14,35,14.40
2016,03,31,14,36,14.40
2016,03,31,14,37,14.40
2016,03,31,14,38,14.40
2016,03,31,14,39,14.50
2016,03,31,14,40,14.50
2016,03,31,14,41,14.60
2016,03,31,14,42,14.60
2016,03,31,14,43,14.60
2016,03,31,14,44,14.60
2016,03,31,14,45,14.60
2016,03,31,14,46,14.60
2016,03,31,14,47,14.70
2016,03,31,14,48,14.80
2016,03,31,14,49,14.90
2016,03,31,14,50,15.00
2016,03,31,14,51,15.00
2016,03,31,14,52,15.00
2016,03,31,14,53,15.00
2016,03,31,14,54,15.00
2016,03,31,14,55,15.00
2016,03,31,14,56,15.00
2016,03,31,14,57,15.00
2016,03,31,14,58,15.00
2016,03,31,14,59,15.00
2016,03,31,15,00,15.00
2016,03,31,15,01,15.00
2016,03,31,15,02,15.00
2016,03,31,15,03,15.00
2016,03,31,15,04,15.00
2016,03,31,15,05,15.00
2016,03,31,15,06,15.00
2016,03,31,15,07,15.00
2016,03,31,15,08,15.10
2016,03,31,15,09,15.20
2016,03,31,15,10,15.30
2016,03,31,15,11,15.40
2016,03,31,15,12,15.40
2016,03,31,15,13,15.50
2016,03,31,15,14,15.60
2016,03,31,15,15,15.60
2016,03,31,15,16,15.70
2016,03,31,15,17,15.70
2016,03,31,15,18,15.70
2016,03,31,15,19,15.80
2016,03,31,15,20,15.80
2016,03,31,15,21,15.80
2016,03,31,15,22,15.80
2016,03,31,15,23,15.80
2016,03,31,15,24,15.80
2016,03,31,15,25,15.80
2016,03,31,15,26,15.80
2016,03,31,15,27,15.80
2016,03,31,15,28,15.80
2016,03,31,15,29,15.80
2016,03,31,15,30,15.80
2016,03,31,15,31,15.80
2016,03,31,15,32,15.80
2016,03,31,15,33,15.90
2016,03,31,15,34,15.90
2016,03,31,15,35,15.90
2016,03,31,15,36,15.90
2016,03,31,15,37,15.90
2016,03,31,15,38,15.90
2016,03,31,15,39,15.90
2016,03,31,15,40,15.90
2016,03,31,15,41,15.90
2016,03,31,15,42,15.90
2016,03,31,15,43,16.00
2016,03,31,15,44,16.00
2016,03,31,15,45,15.90
2016,03,31,15,46,15.90
2016,03,31,15,47,15.90
2016,03,31,15,48,15.90
2016,03,31,15,49,15.90
2016,03,31,15,50,16.00
2016,03,31,15,51,16.00
2016,03,31,15,52,16.10
2016,03,31,15,53,16.10
2016,03,31,15,54,16.10
2016,03,31,15,55,16.20
2016,03,31,15,56,16.20
2016,03,31,15,57,16.20
2016,03,31,15,58,16.20
2016,03,31,15,59,16.30
2016,03,31,16,00,16.30
2016,03,31,16,01,16.30
2016,03,31,16,02,16.30
2016,03,31,16,03,16.30
2016,03,31,16,04,16.30
2016,03,31,16,05,16.30
2016,03,31,16,06,16.30
2016,03,31,16,07,16.30
2016,03,31,16,08,16.40
2016,03,31,16,09,16.40
2016,03,31,16,10,16.40
2016,03,31,16,11,16.40
2016,03,31,16,12,16.40
2016,03,31,16,13,16.40
2016,03,31,16,14,16.40
2016,03,31,16,15,16.40
2016,03,31,16,16,16.40
2016,03,31,16,17,16.40
2016,03,31,16,18,16.50
2016,03,31,16,19,16.50
2016,03,31,16,20,16.60
2016,03,31,16,21,16.60
2016,03,31,16,22,16.60
2016,03,31,16,23,16.60
2016,03,31,16,24,16.60
2016,03,31,16,25,16.60
2016,03,31,16,26,16.60
2016,03,31,16,27,16.60
2016,03,31,16,28,16.60
2016,03,31,16,29,16.60
2016,03,31,16,30,16.60
2016,03,31,16,31,16.60
2016,03,31,16,32,16.60
2016,03,31,16,33,16.70
2016,03,31,16,34,16.70
2016,03,31,16,35,16.70
2016,03,31,16,36,16.70
2016,03,31,16,37,16.70
2016,03,31,16,38,16.70
2016,03,31,16,39,16.70
2016,03,31,16,40,16.70
2016,03,31,16,41,16.70
2016,03,31,16,42,16.80
2016,03,31,16,43,16.80
2016,03,31,16,44,16.80
2016,03,31,16,45,16.80
2016,03,31,16,46,16.80
2016,03,31,16,47,16.80
2016,03,31,16,48,16.80
2016,03,31,16,49,16.80
2016,03,31,16,50,16.90
2016,03,31,16,51,16.90
2016,03,31,16,52,16.90
2016,03,31,16,53,17.00
2016,03,31,16,54,17.00
2016,03,31,16,55,17.10
2016,03,31,16,56,17.10
2016,03,31,16,57,17.10
2016,03,31,16,58,17.20
2016,03,31,16,59,17.20
2016,03,31,17,00,17.20
2016,03,31,17,01,17.30
2016,03,31,17,02,17.30
2016,03,31,17,03,17.30
2016,03,31,17,04,17.30
2016,03,31,17,05,17.30
2016,03,31,17,06,17.30
2016,03,31,17,07,17.30
2016,03,31,17,08,17.30
2016,03,31,17,09,17.30
2016,03,31,17,10,17.30
2016,03,31,17,11,17.30
2016,03,31,17,12,17.30
2016,03,31,17,13,17.30
2016,03,31,17,14,17.30
2016,03,31,17,15,17.30
2016,03,31,17,16,17.30
2016,03,31,17,17,17.30
2016,03,31,17,18,17.30
2016,03,31,17,19,17.30
2016,03,31,17,20,17.30
2016,03,31,17,21,17.30
2016,03,31,17,22,17.20